Location: Quedlinburg
(51.7921°N, 11.1414°E)
Time: 08:09:27
(UTC+02:00)

SO-50 - Pass Details

Date: 08 March 2026
Orbit: 567 x 673 km, 64.6° (Epoch: 13 April)

Event Time Altitude Azimuth Distance (km) Brightness Sun altitude
Rises 18:56:01 0° 164° (SSE) 2,920 ? -8.3°
Reaches altitude 10° 18:59:23 10° 137° (SE) 2,042 ? -8.8°
Maximum altitude 19:01:34 13° 109° (ESE) 1,848 ? -9.1°
Enters shadow 19:02:45 12° 93° (E) 1,921 ? -9.3°
